STARLINK-34746

Last updated on Tue Aug 19 2025 00:02:05 GMT+0000 (Coordinated Universal Time)

1 64847U 25152F 25230.56642705 .00035340 00000+0 64790-3 0 9994 2 64847 97.6029 84.2040 0001321 80.6634 279.4765 15.49219837 4784
UTC large
Height (km)
Speed (km/s)
/
Latitude / Longitude
Inclination (degrees)
Orbital Period (minutes)
Azimuth
Elevation
Range (km)
Doppler Factor

Next 0 passes for location: London (51.5072 / 0.1276)

Sorry there are no passes over London.
STARLINK-34746